COSMOS 2251 DEB, 34726

Orbit data source: Space-Track

COSMOS 2251 DEB, 34726 is space debris in LEO originally from a launch on Wed, 16 Jun 1993 UTC launched from the Plesetsk Missile And Space Complex (PKMTR). The debris from Iridium 33, an American commercial communications satellite, has been tracked extensively since its accidental collision with the defunct Russian satellite Cosmos 2251 in 2009. This event, occurring at high speed in low Earth orbit (LEO), generated thousands of pieces of space debris, significantly increasing the risk of further collisions. The Iridium 33 debris cloud has impacted space traffic management and orbital debris mitigation strategies, making it a subject of ongoing study in space situational awareness.

Loading next visibility...
Identifier
34726, 1993-036YU
Orbit
LEO
Country
Flag of CISCIS
Related business
Manufacturer
Unknown
Mission
Spacecraft
Bus & Motor
Unknown
Mass
Unknown
Launch date (UTC)
1993-06-16 (33 years ago)
Launch vehicle
Unknown
Launch site
Plesetsk Missile And Space Complex (PKMTR)
Object type
Payload
Rocket body
Debris
Shape & HBR
Unknown shape, 0.1 m
Radar Cross Section
Medium (>0.1 m² and <1 m²)

Expand to show TLE details & history
Last TLE update: 15 hours ago

TLE from 15 hours ago
0 COSMOS 2251 DEB
1 34726U 93036YU  26238.06064385  .00001387  00000-0  28879-3 0  9992
2 34726  74.0259 216.9362 0044687 300.0826  59.5912 14.60428326922435
Epoch: 2026-08-26T01:27Z
TLE epoch observation values (Epoch: 2026-08-26T01:27:19.628Z)
Latitude
-0.00004°
Longitude
-139.21465°
Altitude
678.543 km
Speed
7.526 km/s
True Right ascension
14h 27m 44s
True Declination
0° 00' 00"
Sunlit
Object was in daylight at epoch
Visualization orbit readout
Latitude
Unknown
Longitude
Unknown
Altitude
Unknown
Speed
Unknown
Apparent Right ascension
Unknown
Apparent Declination
Unknown
Sunlit
N/A
Visualization observer readout
Local Sidereal Time
07:32:14
Azimuth
Unknown
Elevation
Unknown
Doppler factor
Unknown
Orbital elements
Apogee altitude
720.972 km
Perigee altitude
657.807 km
Semi-major axis
7,067.526 km
Eccentricity
0.00447
Inclination
74.0259°
RAAN
216.9362°
Arg. of periapsis
300.0826°
True anomaly
60.03408°
Mean anomaly
59.5912°
Eccentric anomaly
59.81252°
Mean motion
3.65294 °/min
Orbital period
98.55 mins
BSTAR
0.00028879

Documentation

Showing up to 5 results
|